Regional Weather Roundup
Issued by NWS

Home | Current Version | Previous Version | Text Only | Print | Product List | Glossary Off
Versions: 1 2 3 4 5 6 7 8 9 10 11 12 13 14 15 16 17 18 19 20 21 22 23 24 25 26 27 28 29 30 31 32 33 34 35 36 37 38 39 40 41 42 43 44 45 46 47 48

000
ASUS45 KBOU 272007
RWRCO

WEATHER ROUNDUP FOR COLORADO
NATIONAL WEATHER SERVICE DENVER/BOULDER CO
100 PM MST SAT DEC 27 2014

NOTE: "FAIR" INDICATES FEW OR NO CLOUDS BELOW 12000 FEET WITH NO
SIGNIFICANT WEATHER AND/OR OBSTRUCTIONS TO VISIBILITY.

COZ001>005-013-030-031-272100-
...NORTHWEST COLORADO...

CITY           SKY/WX    TMP DP  RH WIND       PRES   REMARKS
CRAIG          PTSUNNY   16   9  74 CALM      30.23F
HAYDEN         SUNNY     16   7  67 CALM      30.20F
MEEKER         SUNNY     15   8  73 CALM      30.21F
MOUNT WERNER   NOT AVBL
STEAMBOAT SPGS CLOUDY    15   6  66 CALM      30.18F
WALDEN         SUNNY     12   3  67 S10       30.06F WCI  -1
$$

COZ006>008-011-272100-
...WEST CENTRAL VALLEYS...

CITY           SKY/WX    TMP DP  RH WIND       PRES   REMARKS
GRAND JUNCTION SUNNY     25  11  55 CALM      30.29F
MONTROSE       SUNNY     24   8  50 VRB3      30.27F
EAGLE          MOSUNNY   27  10  50 CALM      30.21F
RIFLE          SUNNY     22   5  48 CALM      30.26F
DELTA          MOSUNNY   29  15  57 E5        30.29F WCI  24
NUCLA          SUNNY     28   9  43 SW5       30.27F WCI  23
$$

COZ017>023-064>068-272100-
...SOUTHWEST COLORADO...

CITY           SKY/WX    TMP DP  RH WIND       PRES   REMARKS
DURANGO        SUNNY     20  11  68 E6        30.18F WCI  12
CORTEZ         SUNNY     28  11  48 S5        30.21F WCI  23
PAGOSA SPRINGS SUNNY     20  10  65 CALM      30.14F
TELLURIDE      SUNNY     17   3  54 CALM      30.10S
WOLF CREEK PAS CLOUDY     3   1  92 MISG      29.99S
$$

COZ009-010-012-014-032>034-037-058>063-272100-
...CENTRAL COLORADO...

CITY           SKY/WX    TMP DP  RH WIND       PRES   REMARKS
ASPEN          SUNNY     16   1  51 N5        30.12F WCI   9
BUENA VISTA    SUNNY     19   2  49 CALM      30.05F
COPPER MTN     MOSUNNY    5  -2  72 W21       29.93F WCI -16
BERTHOUD PASS  CLOUDY    -6 -13  71 MISG      29.86F
COTTONWOOD PAS SUNNY     19   3  49 CALM      29.98F
GUNNISON       SUNNY      7 -18  30 E6        30.18F WCI  -3
KREMMLING      PTSUNNY   14   5  67 CALM      30.16F
LEADVILLE      SUNNY     10  -5  50 NW16G23   29.99F WCI  -7
SALIDA         SUNNY     21   7  53 S10G20    30.13F WCI  10
SUNLIGHT       CLOUDY   N/A N/A N/A CALM      30.03F HAZE
WILKERSON PASS MOSUNNY    9   1  72 W8        29.91F WCI  -4
$$

COZ069>075-272100-
...SAN LUIS VALLEY/SANGRE DE CRISTO MOUNTAINS...

CITY           SKY/WX    TMP DP  RH WIND       PRES   REMARKS
ALAMOSA        SUNNY     20   5  52 CALM      30.13F
LA VETA PASS   NOT AVBL
SAGUACHE       SUNNY     12   3  67 SE9       30.12F WCI   0
$$

COZ035-036-038>040-272100-
...NORTHERN COLORADO FRONT RANGE...

CITY           SKY/WX    TMP DP  RH WIND       PRES   REMARKS
DENVER INTL AP MOSUNNY   25  11  55 SE10      30.06F WCI  15
DMNS CITY PARK   N/A     29   5  36 E6G12     30.06F WCI  23
AURORA         MOSUNNY   26  11  53 SE8       30.06F WCI  17
FRONT RANGE AP SUNNY     27  14  59 SE12      30.07F WCI  16
ERIE MUNI ARPT   N/A     28   9  44 S7        30.07F WCI  21
BOULDER MUN AP SUNNY     30  10  43 SE8       30.05F WCI  23
CENTENNIAL     MOSUNNY   24   8  50 SE9       30.04F WCI  14
BROOMFIELD     MOSUNNY   27   7  43 S12       30.06F WCI  16
FORT COLLINS   SUNNY     19  12  73 NE3       30.09F
LONGMONT       SUNNY     34  12  40 S7        30.08F WCI  27
$$

COZ041-046-047-076>085-087-088-272100-
...PIKES PEAK/PALMER DIVIDE AND SOUTHERN FOOTHILLS...

CITY           SKY/WX    TMP DP  RH WIND       PRES   REMARKS
COLO. SPRINGS  MOSUNNY   26   8  46 S10       30.08F WCI  16
A. F. ACADEMY  SUNNY     24   6  46 S12       30.04F WCI  13
ELLICOTT       NOT AVBL
FALCON         SUNNY     24   7  47 S12       30.06F WCI  13
FORT CARSON    SUNNY     27  10  49 S9        30.08F WCI  17
LIMON          SUNNY     23  10  57 SW6       30.11F WCI  16
MONUMENT HILL  SUNNY     25  12  58 S13       30.01F WCI  13
TRINIDAD       SUNNY     18  11  74 SE9       30.12F WCI   7
$$

COZ042>045-048>051-090-091-272100-
...NORTHEAST COLORADO...

CITY           SKY/WX    TMP DP  RH WIND       PRES   REMARKS
GREELEY ARPT   SUNNY     10   5  79 CALM      30.10F
AKRON          SUNNY     19  12  74 W8        30.11F WCI   9
BURLINGTON     SUNNY     25  13  60 NW10      30.15F WCI  15
WRAY           SUNNY     31  14  49 W6        30.17F WCI  25
STERLING       SUNNY     21  12  68 S6        30.14F WCI  14
HOLYOKE        SUNNY     30  14  51 W8        30.15F WCI  23
FORT MORGAN    SUNNY     18   9  68 CALM      30.12F
$$

COZ086-089-092>099-272100-
...SOUTHEAST COLORADO...

CITY           SKY/WX    TMP DP  RH WIND       PRES   REMARKS
PUEBLO         SUNNY     31   8  38 CALM      30.14F
LA JUNTA       SUNNY     28  15  58 VRB6      30.19F WCI  22
LAMAR          SUNNY     30  17  58 W9        30.20F WCI  22
SPRINGFIELD      N/A     30  14  51 NW9       30.17F WCI  22
$$



USA.gov is the U.S. government's official web portal to all federal, state and local government web resources and services.